Weather in Podcherye

Russia / Komi Republic     63°56′22″N   57°33′41″E
temp.,
°C
wind,
m/s
gust,
m/s
humid.,
%
clouds,
%
prec.,
mm/h
press.,
hPa
HPBL,
m
2 december, thu
thu200:00−10e41185100 0.4 991253
03:00−10e31094100 0.9 989310
06:00−10e2596100 2.9 988226
09:00−10ese2596100 4.3 989192
12:00−9se2496100 0.5 989192
15:00−10sse2796100 1.0 989276
18:00−9s3895100 0.3 989299
21:00−11s3797100 0.4 990163
3 december, fri
fri300:00−11s2596100 0.3 989142
03:00−11s2397100 0.6 98979
06:00−10sw0197100 0.5 99016
09:00−11w2497100 0.9 991123
12:00−13nnw4795100 0.4 995346
15:00−16nw489497 0.7 999380
18:00−19nw379599 0.1 1003289
21:00−27nw1210050 0.1 100817
4 december, sat
sat400:00−31nnw1110060 0.0 10129
03:00−34nne1110059 0.0 10159
06:00−37nne1110053 0.0 10189
09:00−38ne2210092 0.0 101911
12:00−31nne2598100 0.0 101875
15:00−27ne3795100 0.0 1016122
18:00−19ne41185100 0.0 1013321
21:00−16ene51076100 0.0 1013538
5 december, sun
sun500:00−16e71376100 0.0 1013659
03:00−18ene71293100 0.9 1014669
06:00−18ene61188100 0.6 1015608
09:00−19ene5987100 0.7 1016501
12:00−18ene498299 0.1 1017428
15:00−20ne378798 0.1 1018215
18:00−25nne359516 0.0 102062
21:00−31nne229913 0.0 102118
6 december, mon
mon600:00−35nne2210023 0.0 102310
03:00−35w0010077 0.0 10249
06:00−29s129898 0.0 102445
09:00−23s249899 0.3 102498
12:00−18s2498100 0.6 1024117
15:00−16s3697100 1.0 1024131
18:00−15ssw3797100 0.3 1025165
21:00−15ssw4897100 0.5 1025204